This is the latest recevied weather packets stored in our database for station/object K5NAN. If no packets are shown the sender has not sent any weather packets the latest 10 day(s).
| Time | Temp. | Humidity | Pressure | Rain* | Wind** | Luminosity | Snow |
|---|---|---|---|---|---|---|---|
| 1777480199 | 15° C | 94% | 1013.7 hPa | 0 mm | - | 475 W/m² | - |
| 1777479895 | 15° C | 94% | 1014.7 hPa | 0 mm | - | 542 W/m² | - |
| 1777479592 | 14.44° C | 94% | 1014.8 hPa | 0 mm | - | 723 W/m² | - |
| 1777479290 | 13.89° C | 94% | 1014.6 hPa | 13.72 mm | - | 382 W/m² | - |
| 1777478986 | 13.89° C | 92% | 1014.5 hPa | 26.92 mm | - | 130 W/m² | - |
| 1777478683 | 13.89° C | 90% | 1014.1 hPa | 33.02 mm | - | 86 W/m² | - |
| 1777478379 | 14.44° C | 87% | 1014.9 hPa | 11.94 mm | - | 48 W/m² | - |
| 1777478076 | 15° C | 85% | 1015.3 hPa | 0 mm | - | 4 W/m² | - |
| 1777477772 | 15° C | 85% | 1014.6 hPa | 0 mm | - | 20 W/m² | - |
| 1777477468 | 15° C | 85% | 1014.3 hPa | 0 mm | - | 54 W/m² | - |
| 1777477165 | 15° C | 84% | 1014.5 hPa | 0 mm | - | 42 W/m² | - |
| 1777476861 | 15° C | 84% | 1014.5 hPa | 0 mm | - | 42 W/m² | - |
| 1777476560 | 15° C | 84% | 1014.6 hPa | 0 mm | - | 41 W/m² | - |
| 1777476256 | 15° C | 84% | 1014.7 hPa | 0 mm | - | 35 W/m² | - |
| 1777475951 | 15° C | 84% | 1014.6 hPa | 0 mm | - | 34 W/m² | - |
| 1777475648 | 15° C | 84% | 1013.9 hPa | 0 mm | - | 65 W/m² | - |
| 1777475344 | 15° C | 84% | 1013.9 hPa | 0 mm | - | 54 W/m² | - |
| 1777475039 | 15° C | 84% | 1014 hPa | 0 mm | - | 66 W/m² | - |
| 1777474736 | 15° C | 84% | 1014.1 hPa | 0 mm | - | 53 W/m² | - |
| 1777474432 | 15° C | 84% | 1014.2 hPa | 0 mm | - | 38 W/m² | - |
| 1777474128 | 15° C | 83% | 1014.1 hPa | 0 mm | - | 56 W/m² | - |
| 1777473827 | 15° C | 84% | 1013.8 hPa | 0 mm | - | 58 W/m² | - |
| 1777473523 | 15° C | 83% | 1013.7 hPa | 0 mm | - | 72 W/m² | - |
| 1777473219 | 15° C | 84% | 1013.8 hPa | 0 mm | - | 78 W/m² | - |
| 1777472915 | 15° C | 84% | 1013.9 hPa | 0 mm | - | 89 W/m² | - |
* Rain latest hour (hover to see other rain measurements)
** Current wind speed in m/s (hover to see current wind gust speed)